Meath Environmental Platform

Observations for Trim Patrick St

Time AQI Temp °C Hum % Pres Pa CO μg/m³ H₂S μg/m³ NO μg/m³ NO₂ μg/m³ O₃ μg/m³ SO₂ μg/m³ PM1 μg/m³ PM2.5 μg/m³ PM10 μg/m³
Monday 3 August 2026
20:00 4 21.3 59 74,342 0 24.59 0.87 58.81 51.26 5.17 4.57 9.57 10.52
19:59 4 21.4 58 74,231 0 29.32 0.74 66 65.43 6.89 2.86 8.12 8.93
19:58 4 21.4 58 74,074 0 27.87 0.81 68.11 53.55 6.23 2 7.43 8.17
19:57 4 21.4 58 73,901 0 27.13 0.81 60.47 68.32 6.44 2.86 7.39 8.13
19:56 4 21.5 58 73,730 0 26.57 0.68 54.47 59.03 6.95 2.86 7.43 8.17
19:55 4 21.5 58 73,548 0 26.26 0.69 58.46 54.34 6.83 3.71 8.92 9.81
19:54 4 21.6 56 73,349 0 24.7 0.68 58.94 54.01 6.23 3.71 9 9.9
19:53 4 21.6 54 73,190 0 24.52 0.74 55.67 57.59 5.21 3.71 9.22 10.14
19:52 4 21.7 55 73,019 0 25.36 0.75 51.51 58.41 6.03 4.57 9.14 10.05
19:51 4 21.7 55 72,797 0 30.69 0.74 69.41 62.84 7.26 4.57 9.84 10.82
19:50 4 21.8 59 72,459 0 31.36 0.58 70.53 57.08 7.7 3.71 8.09 8.9
19:49 4 21.8 55 72,116 0 27.05 0.75 61.82 52.35 6.25 3.71 8.36 9.2
19:48 4 21.9 57 71,846 0 29.19 0.68 65.49 68.17 7.41 2.86 7.46 8.21
19:47 4 21.9 57 71,548 0 29.06 0.59 94.29 32.82 6.7 5.43 9.71 10.68
19:46 4 22 57 71,250 0 25.39 0.79 60.66 48.19 7.02 4.57 10.47 11.52
19:45 4 22 56 71,069 0 24.41 0.67 54.78 62.54 6.84 3.71 9.04 9.94
19:44 4 22.1 54 70,884 0 27.42 0.85 55.36 50.78 7.29 4.57 9.19 10.11
19:43 4 22.1 56 70,643 0 30.07 0.8 67.11 56.07 7.2 4.57 9.03 9.93
19:42 4 22.1 57 70,321 0 31.15 0.72 75.87 82.99 7.63 4.57 9.74 10.72
19:41 4 22.2 56 70,009 0 28.38 0.75 67.84 68.24 7.69 4.57 9.02 9.93